DW6996 Weather Reports


time (UTC)temp
C
wind
direction
speed
KPH
gust
KPH
rain 1hr
cm
rain 24hr
cm
rain mn
cm
humidity
%
barometer
mb
20260502152229 26 87 3.2 19.3 0.00 0.00 0.00 28 1012.3
20260502151728 26 80 3.2 19.3 0.00 0.00 0.00 28 1012.3
20260502151448 26 51 3.2 25.7 0.00 0.00 0.00 28 1012.3
20260502150728 26 57 3.2 25.7 0.00 0.00 0.00 28 1012.2
20260502150230 26 300 1.6 22.5 0.00 0.00 0.00 28 1012.2
20260502130230 21 343 0.0 0.0 0.00 0.00 0.00 27 1010.9
20260502123729 22 136 0.0 0.0 0.00 0.00 0.00 25 1010.4
20260502123451 22 136 0.0 0.0 0.00 0.00 0.00 25 1010.4
20260502122729 22 136 0.0 0.0 0.00 0.00 0.00 26 1010.3
20260502122452 22 136 0.0 0.0 0.00 0.00 0.00 26 1010.2
20260502121947 22 136 0.0 0.0 0.00 0.00 0.00 26 1010.2
20260502121225 22 136 0.0 0.0 0.00 0.00 0.00 26 1010.1
20260502120951 22 136 0.0 0.0 0.00 0.00 0.00 26 1010.1
20260502120223 22 136 0.0 0.0 0.00 0.00 0.00 26 1010.1
20260502115217 22 136 0.0 0.0 0.00 0.00 0.00 25 1010.0
20260502114716 22 136 0.0 0.0 0.00 0.00 0.00 25 1010.0
20260502114215 22 174 0.0 0.0 0.00 0.00 0.00 25 1010.0
20260502113936 23 178 0.0 0.0 0.00 0.00 0.00 24 1009.9
20260502113212 23 178 0.0 0.0 0.00 0.00 0.00 23 1009.9
20260502112709 23 178 0.0 0.0 0.00 0.00 0.00 23 1010.0
20260502112210 23 178 0.0 0.0 0.00 0.00 0.00 23 1009.9
20260502111709 23 178 0.0 1.6 0.00 0.00 0.00 23 1009.9
20260502111209 23 178 0.0 1.6 0.00 0.00 0.00 22 1009.8
20260502110709 25 178 0.0 0.0 0.00 0.00 0.00 21 1009.8
20260502110210 25 24 0.0 0.0 0.00 0.00 0.00 20 1009.7
20260502105708 25 24 0.0 0.0 0.00 0.00 0.00 20 1009.6
20260502105434 25 25 0.0 0.0 0.00 0.00 0.00 20 1009.6
20260502104702 25 5 0.0 0.0 0.00 0.00 0.00 20 1009.6
20260502104200 25 21 0.0 0.0 0.00 0.00 0.00 20 1009.5
20260502103702 25 30 0.0 0.0 0.00 0.00 0.00 20 1009.5
20260502103202 25 13 0.0 0.0 0.00 0.00 0.00 20 1009.5
20260502102920 25 32 0.0 0.0 0.00 0.00 0.00 20 1009.4
20260502102201 25 38 0.0 1.6 0.00 0.00 0.00 20 1009.4
20260502101922 25 59 0.0 1.6 0.00 0.00 0.00 20 1009.4
20260502101201 25 52 0.0 1.6 0.00 0.00 0.00 20 1009.4
20260502100702 25 5 0.0 1.6 0.00 0.00 0.00 20 1009.3
20260502100202 25 15 0.0 3.2 0.00 0.00 0.00 20 1009.4
20260502091151 26 37 0.0 12.9 0.00 0.00 0.00 20 1009.3
20260502090649 26 344 0.0 12.9 0.00 0.00 0.00 20 1009.3
20260502090149 26 344 0.0 14.5 0.00 0.00 0.00 20 1009.3
20260502071117 25 97 0.0 0.0 0.00 0.00 0.00 20 1008.7
20260502070618 25 59 0.0 0.0 0.00 0.00 0.00 20 1008.7
20260502070117 25 270 0.0 0.0 0.00 0.00 0.00 21 1008.7
20260502065613 25 270 0.0 0.0 0.00 0.00 0.00 21 1008.8
20260502065114 25 270 0.0 0.0 0.00 0.00 0.00 20 1008.7
20260502064613 26 270 0.0 0.0 0.00 0.00 0.00 20 1008.7
20260502064112 26 136 0.0 0.0 0.00 0.00 0.00 18 1008.6
20260502063611 27 150 0.0 3.2 0.00 0.00 0.00 18 1008.6
20260502063109 27 150 0.0 3.2 0.00 0.00 0.00 17 1008.6
20260502062609 27 141 0.0 8.0 0.00 0.00 0.00 17 1008.5
20260502062105 27 119 0.0 8.0 0.00 0.00 0.00 17 1008.6
20260502062047 27 142 0.0 0.0 0.00 0.00 0.00 17 1008.5
20260502061105 27 140 0.0 0.0 0.00 0.00 0.00 17 1008.5
20260502060826 27 140 0.0 0.0 0.00 0.00 0.00 17 1008.5
20260502060106 27 140 0.0 0.0 0.00 0.00 0.00 16 1008.4
20260502055829 28 140 0.0 0.0 0.00 0.00 0.00 16 1008.3
20260502055106 28 139 0.0 0.0 0.00 0.00 0.00 16 1008.3
20260502054605 28 142 0.0 0.0 0.00 0.00 0.00 15 1008.3
20260502054106 28 142 0.0 0.0 0.00 0.00 0.00 15 1008.3
20260502053834 28 142 0.0 1.6 0.00 0.00 0.00 15 1008.2
20260502053105 28 134 0.0 1.6 0.00 0.00 0.00 15 1008.2
20260502052825 28 129 0.0 0.0 0.00 0.00 0.00 16 1008.1
20260502052550 28 121 0.0 0.0 0.00 0.00 0.00 16 1008.1
20260502051606 28 120 0.0 0.0 0.00 0.00 0.00 16 1008.1
20260502051105 28 132 0.0 1.6 0.00 0.00 0.00 16 1008.1
20260502050603 28 131 0.0 1.6 0.00 0.00 0.00 16 1008.1
20260502045604 28 132 0.0 9.7 0.00 0.00 0.00 17 1008.0
20260502045102 28 113 0.0 9.7 0.00 0.00 0.00 17 1008.1
20260502044602 28 126 0.0 1.6 0.00 0.00 0.00 17 1008.0
20260502044102 28 120 0.0 0.0 0.00 0.00 0.00 17 1008.1
20260502043600 28 130 0.0 1.6 0.00 0.00 0.00 17 1008.1
20260502043053 28 129 0.0 1.6 0.00 0.00 0.00 17 1008.1
20260502042548 28 132 0.0 0.0 0.00 0.00 0.00 17 1008.1
20260502042041 28 132 0.0 0.0 0.00 0.00 0.00 18 1008.0
20260502041804 28 131 0.0 0.0 0.00 0.00 0.00 18 1007.8
20260502041039 28 132 0.0 0.0 0.00 0.00 0.00 18 1007.7
20260502040801 28 130 0.0 0.0 0.00 0.00 0.00 19 1007.7
20260502040035 28 159 0.0 0.0 0.00 0.00 0.00 18 1007.6
20260502035536 28 159 0.0 0.0 0.00 0.00 0.00 19 1007.6
20260502035034 28 176 0.0 0.0 0.00 0.00 0.00 19 1007.5
20260502034533 28 176 0.0 0.0 0.00 0.00 0.00 19 1007.5
20260502034030 28 181 0.0 0.0 0.00 0.00 0.00 19 1007.5
20260502033529 28 182 0.0 0.0 0.00 0.00 0.00 19 1007.4
20260502033249 28 182 0.0 0.0 0.00 0.00 0.00 19 1007.3
20260502032529 28 182 0.0 0.0 0.00 0.00 0.00 19 1007.2
20260502032031 28 184 0.0 0.0 0.00 0.00 0.00 19 1007.2
20260502031529 28 184 0.0 0.0 0.00 0.00 0.00 19 1007.1
20260502031029 28 184 0.0 0.0 0.00 0.00 0.00 19 1007.1
20260502030530 28 184 0.0 0.0 0.00 0.00 0.00 19 1007.0
20260502030028 28 184 0.0 0.0 0.00 0.00 0.00 20 1007.0
20260502025755 28 185 0.0 0.0 0.00 0.00 0.00 20 1007.0
20260502025029 28 185 0.0 0.0 0.00 0.00 0.00 20 1006.9
20260502024758 28 185 0.0 0.0 0.00 0.00 0.00 20 1006.9
20260502024251 28 185 0.0 0.0 0.00 0.00 0.00 19 1006.8
20260502023516 28 185 0.0 0.0 0.00 0.00 0.00 19 1006.7
20260502023011 28 184 0.0 0.0 0.00 0.00 0.00 19 1006.6
20260502022511 29 172 0.0 3.2 0.00 0.00 0.00 19 1006.6
20260502022232 29 199 0.0 3.2 0.00 0.00 0.00 19 1006.5
20260502021508 29 203 0.0 3.2 0.00 0.00 0.00 19 1006.5
20260502021005 29 207 0.0 3.2 0.00 0.00 0.00 19 1006.4
20260502020724 30 207 0.0 9.7 0.00 0.00 0.00 18 1006.4
20260502020001 30 212 0.0 9.7 0.00 0.00 0.00 18 1006.4
20260502015501 30 206 0.0 0.0 0.00 0.00 0.00 18 1006.4
20260502015000 30 205 0.0 0.0 0.00 0.00 0.00 18 1006.4
20260502014501 30 213 0.0 0.0 0.00 0.00 0.00 18 1006.3
20260502014449 30 207 0.0 8.0 0.00 0.00 0.00 18 1006.3
20260502013501 30 203 0.0 8.0 0.00 0.00 0.00 18 1006.3
20260502013001 30 221 0.0 1.6 0.00 0.00 0.00 18 1006.3
20260502012501 30 213 0.0 9.7 0.00 0.00 0.00 17 1006.3
20260502012003 30 191 0.0 9.7 0.00 0.00 0.00 18 1006.3
20260502011502 31 224 0.0 0.0 0.00 0.00 0.00 18 1006.4
20260502011000 31 234 0.0 1.6 0.00 0.00 0.00 18 1006.4
20260502010719 31 230 0.0 1.6 0.00 0.00 0.00 18 1006.5
20260502010001 31 217 0.0 1.6 0.00 0.00 0.00 18 1006.4
20260502005938 31 177 0.0 1.6 0.00 0.00 0.00 18 1006.5
20260502004953 31 217 0.0 1.6 0.00 0.00 0.00 18 1006.5
20260502004455 31 232 0.0 0.0 0.00 0.00 0.00 17 1006.5
20260502003951 31 250 0.0 0.0 0.00 0.00 0.00 17 1006.5
20260502003451 31 234 0.0 1.6 0.00 0.00 0.00 17 1006.4
20260502002952 31 221 0.0 1.6 0.00 0.00 0.00 18 1006.5
20260502002449 31 247 0.0 3.2 0.00 0.00 0.00 18 1006.5
20260502001947 31 246 0.0 3.2 0.00 0.00 0.00 18 1006.5
20260502001445 31 265 0.0 4.8 0.00 0.00 0.00 18 1006.5
20260502000943 31 200 0.0 4.8 0.00 0.00 0.00 18 1006.5
20260502000446 31 250 0.0 1.6 0.00 0.00 0.00 18 1006.6
20260501235943 31 273 0.0 16.1 0.00 0.00 0.00 18 1006.6
20260501235443 31 267 0.0 16.1 0.00 0.00 0.00 18 1006.6
20260501234944 31 250 0.0 0.0 0.00 0.00 0.00 18 1006.7
20260501234440 31 234 0.0 1.6 0.00 0.00 0.00 17 1006.7
20260501234433 31 200 0.0 4.8 0.00 0.00 0.00 17 1006.7
20260501233440 31 234 0.0 4.8 0.00 0.00 0.00 16 1006.7
20260501232941 31 235 0.0 1.6 0.00 0.00 0.00 17 1006.7
20260501232924 31 199 0.0 0.0 0.00 0.00 0.00 17 1006.7
20260501231941 31 243 0.0 3.2 0.00 0.00 0.00 17 1006.7
20260501231434 31 225 0.0 3.2 0.00 0.00 0.00 17 1006.8
20260501230935 31 246 0.0 6.4 0.00 0.00 0.00 17 1006.8
20260501230433 31 227 0.0 8.0 0.00 0.00 0.00 17 1006.8
20260501230158 31 198 0.0 8.0 0.00 0.00 0.00 18 1006.9
20260501225922 31 244 1.6 11.3 0.00 0.00 0.00 18 1006.9
20260501224932 31 238 1.6 11.3 0.00 0.00 0.00 19 1007.0
20260501224433 31 286 0.0 8.0 0.00 0.00 0.00 19 1006.9
20260501223933 31 263 0.0 6.4 0.00 0.00 0.00 19 1007.0
20260501223433 31 213 0.0 6.4 0.00 0.00 0.00 19 1007.1
20260501223155 31 224 1.6 12.9 0.00 0.00 0.00 19 1007.2
20260501222433 31 215 1.6 12.9 0.00 0.00 0.00 19 1007.3
20260501221932 31 216 1.6 16.1 0.00 0.00 0.00 20 1007.3
20260501221433 30 220 1.6 16.1 0.00 0.00 0.00 20 1007.4
20260501220932 31 221 0.0 9.7 0.00 0.00 0.00 20 1007.4
20260501220651 30 258 0.0 8.0 0.00 0.00 0.00 20 1007.5
20260501215933 31 250 0.0 8.0 0.00 0.00 0.00 20 1007.6
20260501215432 31 173 0.0 1.6 0.00 0.00 0.00 19 1007.6
20260501215153 31 199 0.0 1.6 0.00 0.00 0.00 20 1007.7
20260501214432 31 160 0.0 4.8 0.00 0.00 0.00 20 1007.8
20260501213933 30 221 0.0 6.4 0.00 0.00 0.00 20 1008.0
20260501213433 30 209 0.0 6.4 0.00 0.00 0.00 21 1008.1
20260501212933 30 220 0.0 4.8 0.00 0.00 0.00 21 1008.1
20260501212432 30 338 0.0 4.8 0.00 0.00 0.00 20 1008.2
20260501211933 30 221 0.0 4.8 0.00 0.00 0.00 21 1008.3
20260501211430 30 234 0.0 8.0 0.00 0.00 0.00 21 1008.4
20260501210929 30 207 0.0 8.0 0.00 0.00 0.00 20 1008.4
20260501210428 30 226 0.0 4.8 0.00 0.00 0.00 20 1008.4
20260501205929 30 263 0.0 8.0 0.00 0.00 0.00 20 1008.5
20260501205653 30 233 0.0 8.0 0.00 0.00 0.00 21 1008.6
20260501204929 30 221 0.0 0.0 0.00 0.00 0.00 21 1008.6
20260501204428 29 265 0.0 3.2 0.00 0.00 0.00 22 1008.6
20260501203930 30 261 0.0 3.2 0.00 0.00 0.00 22 1008.7
20260501203424 29 220 0.0 3.2 0.00 0.00 0.00 22 1008.8
20260501202918 29 32 0.0 0.0 0.00 0.00 0.00 23 1008.8
20260501202413 29 281 0.0 1.6 0.00 0.00 0.00 22 1008.8
20260501202129 29 225 0.0 1.6 0.00 0.00 0.00 23 1008.9
20260501201402 29 277 0.0 0.0 0.00 0.00 0.00 23 1008.9
20260501200901 29 331 0.0 0.0 0.00 0.00 0.00 22 1009.0
20260501200402 29 251 0.0 6.4 0.00 0.00 0.00 23 1009.0
20260501195902 29 217 0.0 6.4 0.00 0.00 0.00 23 1009.0
20260501195401 28 254 0.0 0.0 0.00 0.00 0.00 24 1009.1
20260501195120 28 275 0.0 1.6 0.00 0.00 0.00 24 1009.1
20260501194402 28 247 0.0 3.2 0.00 0.00 0.00 24 1009.2
20260501193901 28 270 0.0 3.2 0.00 0.00 0.00 24 1009.2
20260501193847 28 242 0.0 3.2 0.00 0.00 0.00 24 1009.3
20260501193125 28 143 0.0 9.7 0.00 0.00 0.00 25 1009.4
20260501192402 28 216 0.0 9.7 0.00 0.00 0.00 25 1009.5
20260501191902 28 235 0.0 12.9 0.00 0.00 0.00 25 1009.5
20260501191401 28 229 0.0 12.9 0.00 0.00 0.00 25 1009.5
20260501190901 28 188 0.0 9.7 0.00 0.00 0.00 25 1009.7
20260501190401 28 154 0.0 9.7 0.00 0.00 0.00 25 1009.7
20260501185901 28 200 0.0 1.6 0.00 0.00 0.00 24 1009.8
20260501185402 28 205 0.0 1.6 0.00 0.00 0.00 26 1009.8
20260501184900 28 92 0.0 3.2 0.00 0.00 0.00 25 1009.9
20260501184616 28 207 0.0 12.9 0.00 0.00 0.00 26 1009.9
20260501183847 28 219 0.0 12.9 0.00 0.00 0.00 26 1010.0
20260501183341 27 209 1.6 22.5 0.00 0.00 0.00 27 1010.1
20260501182836 27 231 0.0 22.5 0.00 0.00 0.00 26 1010.2
20260501182330 27 218 0.0 1.6 0.00 0.00 0.00 26 1010.3
20260501182048 27 286 0.0 1.6 0.00 0.00 0.00 26 1010.4
20260501181330 27 181 0.0 6.4 0.00 0.00 0.00 27 1010.6
20260501180830 27 196 0.0 6.4 0.00 0.00 0.00 27 1010.7
20260501180330 27 172 0.0 0.0 0.00 0.00 0.00 27 1010.7
20260501175831 26 96 0.0 0.0 0.00 0.00 0.00 28 1010.8
20260501175329 26 319 0.0 0.0 0.00 0.00 0.00 27 1010.8
20260501174830 27 285 0.0 0.0 0.00 0.00 0.00 27 1010.8
20260501174329 26 275 0.0 0.0 0.00 0.00 0.00 29 1010.8
20260501173831 26 85 0.0 0.0 0.00 0.00 0.00 29 1010.9
20260501173329 26 84 0.0 0.0 0.00 0.00 0.00 28 1010.9
20260501172829 26 167 0.0 0.0 0.00 0.00 0.00 28 1010.9
20260501172329 26 226 0.0 0.0 0.00 0.00 0.00 29 1010.9
20260501171830 26 236 0.0 0.0 0.00 0.00 0.00 29 1010.9
20260501171330 26 211 0.0 0.0 0.00 0.00 0.00 29 1011.0
20260501170829 26 216 0.0 0.0 0.00 0.00 0.00 30 1011.0
20260501170329 26 214 0.0 1.6 0.00 0.00 0.00 30 1011.0
20260501165829 26 217 0.0 1.6 0.00 0.00 0.00 30 1011.0
20260501165323 25 258 0.0 1.6 0.00 0.00 0.00 30 1011.0
20260501164817 25 249 0.0 0.0 0.00 0.00 0.00 31 1011.0
20260501164318 25 292 0.0 0.0 0.00 0.00 0.00 31 1011.0
20260501163817 25 288 0.0 0.0 0.00 0.00 0.00 31 1011.0
20260501163318 25 296 0.0 0.0 0.00 0.00 0.00 32 1011.0
20260501162818 25 308 0.0 0.0 0.00 0.00 0.00 33 1011.0
20260501162319 25 266 0.0 0.0 0.00 0.00 0.00 33 1011.0
20260501161816 24 223 0.0 0.0 0.00 0.00 0.00 33 1011.0
20260501161316 24 224 0.0 0.0 0.00 0.00 0.00 33 1011.0
20260501160816 24 210 0.0 0.0 0.00 0.00 0.00 34 1010.9
20260501160314 24 231 0.0 4.8 0.00 0.00 0.00 34 1010.9
20260501155813 24 198 0.0 4.8 0.00 0.00 0.00 35 1010.9
20260501155536 24 247 0.0 0.0 0.00 0.00 0.00 35 1010.8
20260501154811 23 161 0.0 0.0 0.00 0.00 0.00 35 1010.8
20260501154310 23 161 0.0 0.0 0.00 0.00 0.00 35 1010.8
20260501154033 23 190 0.0 0.0 0.00 0.00 0.00 35 1010.8
20260501153308 23 190 0.0 0.0 0.00 0.00 0.00 35 1010.7
20260501152807 23 190 0.0 1.6 0.00 0.00 0.00 36 1010.7